| time (UTC) | temp F | wind direction | speed MPH | gust MPH | rain 1hr in | rain 24hr in | rain mn in | humidity % | barometer mb |
| 20260902185000 | 85 | 93 | 5.0 | 9.0 | 0.00 | 0.02 | 0.00 | 72 | 1009.6 |
| 20260902184429 | 85 | 189 | 2.0 | 8.0 | 0.00 | 0.02 | 0.00 | 74 | 1009.7 |
| 20260902184305 | 85 | 189 | 2.0 | 8.0 | 0.00 | 0.02 | 0.00 | 74 | 1009.7 |
| 20260902183603 | 85 | 145 | 2.0 | 8.0 | 0.00 | 0.02 | 0.00 | 73 | 1009.8 |
| 20260902183428 | 85 | 96 | 3.0 | 7.0 | 0.00 | 0.02 | 0.00 | 73 | 1009.7 |
| 20260902182900 | 84 | 121 | 2.0 | 7.0 | 0.00 | 0.02 | 0.00 | 73 | 1009.8 |
| 20260902182428 | 84 | 133 | 3.0 | 8.0 | 0.00 | 0.02 | 0.00 | 72 | 1009.9 |
| 20260902182201 | 84 | 133 | 3.0 | 8.0 | 0.00 | 0.02 | 0.00 | 72 | 1009.9 |
| 20260902181500 | 84 | 99 | 5.0 | 10.0 | 0.00 | 0.02 | 0.00 | 73 | 1009.8 |
| 20260902181428 | 84 | 99 | 5.0 | 10.0 | 0.00 | 0.02 | 0.00 | 73 | 1009.8 |
| 20260902180801 | 84 | 117 | 3.0 | 8.0 | 0.00 | 0.02 | 0.00 | 73 | 1009.9 |
| 20260902180428 | 84 | 129 | 3.0 | 8.0 | 0.00 | 0.02 | 0.00 | 73 | 1010.1 |
| 20260902180100 | 84 | 129 | 3.0 | 8.0 | 0.00 | 0.02 | 0.00 | 73 | 1010.1 |
| 20260902175427 | 83 | 93 | 4.0 | 10.0 | 0.00 | 0.02 | 0.00 | 74 | 1010.1 |
| 20260902175359 | 83 | 93 | 4.0 | 10.0 | 0.00 | 0.02 | 0.00 | 74 | 1010.1 |
| 20260902174702 | 83 | 101 | 3.0 | 11.0 | 0.00 | 0.02 | 0.00 | 74 | 1010.2 |
| 20260902174427 | 83 | 86 | 7.0 | 11.0 | 0.00 | 0.02 | 0.00 | 73 | 1010.0 |
| 20260902174001 | 82 | 110 | 2.0 | 9.0 | 0.00 | 0.02 | 0.00 | 75 | 1010.0 |
| 20260902173429 | 82 | 96 | 4.0 | 9.0 | 0.00 | 0.02 | 0.00 | 75 | 1010.2 |
| 20260902173301 | 82 | 96 | 4.0 | 9.0 | 0.00 | 0.02 | 0.00 | 75 | 1010.2 |
| 20260902172600 | 82 | 87 | 6.0 | 8.0 | 0.00 | 0.02 | 0.00 | 76 | 1010.2 |
| 20260902172429 | 81 | 83 | 4.0 | 10.0 | 0.00 | 0.02 | 0.00 | 76 | 1010.3 |
| 20260902171900 | 81 | 89 | 6.0 | 10.0 | 0.00 | 0.02 | 0.00 | 75 | 1010.3 |
| 20260902171428 | 81 | 79 | 5.0 | 8.0 | 0.00 | 0.02 | 0.00 | 76 | 1010.3 |
| 20260902171200 | 81 | 79 | 5.0 | 8.0 | 0.00 | 0.02 | 0.00 | 76 | 1010.3 |
| 20260902170503 | 80 | 90 | 4.0 | 9.0 | 0.00 | 0.02 | 0.00 | 76 | 1010.5 |
| 20260902170428 | 80 | 90 | 4.0 | 9.0 | 0.00 | 0.02 | 0.00 | 76 | 1010.5 |
| 20260902165802 | 80 | 68 | 4.0 | 8.0 | 0.00 | 0.02 | 0.00 | 77 | 1010.5 |
| 20260902165428 | 80 | 105 | 3.0 | 8.0 | 0.00 | 0.02 | 0.00 | 77 | 1010.5 |
| 20260902165101 | 80 | 105 | 3.0 | 8.0 | 0.00 | 0.02 | 0.00 | 77 | 1010.5 |
| 20260902164428 | 79 | 91 | 6.0 | 8.0 | 0.00 | 0.02 | 0.00 | 79 | 1010.6 |
| 20260902164400 | 79 | 91 | 6.0 | 8.0 | 0.00 | 0.02 | 0.00 | 79 | 1010.6 |
| 20260902163703 | 79 | 101 | 4.0 | 8.0 | 0.00 | 0.02 | 0.00 | 80 | 1010.6 |
| 20260902163428 | 79 | 132 | 2.0 | 9.0 | 0.00 | 0.02 | 0.00 | 81 | 1010.7 |
| 20260902162959 | 78 | 101 | 4.0 | 9.0 | 0.00 | 0.02 | 0.00 | 82 | 1010.7 |
| 20260902162428 | 78 | 102 | 4.0 | 8.0 | 0.00 | 0.02 | 0.00 | 82 | 1010.8 |
| 20260902162259 | 78 | 102 | 4.0 | 8.0 | 0.00 | 0.02 | 0.00 | 82 | 1010.8 |
| 20260902161600 | 77 | 50 | 2.0 | 9.0 | 0.00 | 0.02 | 0.00 | 84 | 1010.7 |
| 20260902161427 | 77 | 95 | 5.0 | 9.0 | 0.00 | 0.02 | 0.00 | 84 | 1010.7 |
| 20260902160902 | 76 | 98 | 3.0 | 8.0 | 0.00 | 0.02 | 0.00 | 86 | 1010.7 |
| 20260902160427 | 76 | 92 | 5.0 | 8.0 | 0.00 | 0.02 | 0.00 | 87 | 1010.9 |
| 20260902160200 | 76 | 92 | 5.0 | 8.0 | 0.00 | 0.02 | 0.00 | 87 | 1010.9 |
| 20260902155503 | 74 | 89 | 3.0 | 10.0 | 0.00 | 0.02 | 0.00 | 89 | 1010.7 |
| 20260902155428 | 74 | 89 | 3.0 | 10.0 | 0.00 | 0.02 | 0.00 | 89 | 1010.7 |
| 20260902154800 | 74 | 91 | 6.0 | 10.0 | 0.00 | 0.02 | 0.00 | 89 | 1010.8 |
| 20260902154428 | 74 | 93 | 3.0 | 7.0 | 0.00 | 0.02 | 0.00 | 91 | 1010.8 |
| 20260902154100 | 74 | 93 | 3.0 | 7.0 | 0.00 | 0.02 | 0.00 | 91 | 1010.8 |
| 20260902153428 | 73 | 83 | 4.0 | 8.0 | 0.00 | 0.02 | 0.00 | 91 | 1010.8 |
| 20260902153401 | 73 | 83 | 4.0 | 8.0 | 0.00 | 0.02 | 0.00 | 91 | 1010.8 |
| 20260902152659 | 73 | 93 | 3.0 | 7.0 | 0.00 | 0.02 | 0.00 | 93 | 1010.8 |
| 20260902152428 | 73 | 100 | 3.0 | 6.0 | 0.00 | 0.02 | 0.00 | 93 | 1010.7 |
| 20260902152000 | 72 | 144 | 1.0 | 5.0 | 0.00 | 0.02 | 0.00 | 94 | 1010.9 |
| 20260902151428 | 72 | 123 | 1.0 | 4.0 | 0.00 | 0.02 | 0.00 | 95 | 1010.9 |
| 20260902151303 | 72 | 123 | 1.0 | 4.0 | 0.00 | 0.02 | 0.00 | 95 | 1010.9 |
| 20260902150603 | 71 | 146 | 1.0 | 6.0 | 0.00 | 0.02 | 0.00 | 96 | 1010.9 |
| 20260902150428 | 70 | 106 | 1.0 | 6.0 | 0.00 | 0.02 | 0.00 | 96 | 1011.0 |
| 20260902145859 | 70 | 120 | 3.0 | 6.0 | 0.00 | 0.02 | 0.00 | 97 | 1010.9 |
| 20260902145427 | 69 | 103 | 2.0 | 6.0 | 0.00 | 0.02 | 0.00 | 98 | 1010.7 |
| 20260902145202 | 69 | 103 | 2.0 | 6.0 | 0.00 | 0.02 | 0.00 | 98 | 1010.7 |
| 20260902144459 | 67 | 98 | 2.0 | 4.0 | 0.00 | 0.02 | 0.00 | 100 | 1010.8 |
| 20260902144427 | 67 | 98 | 2.0 | 4.0 | 0.00 | 0.02 | 0.00 | 100 | 1010.8 |
| 20260902143812 | 66 | 98 | 1.0 | 3.0 | 0.00 | 0.02 | 0.00 | 100 | 1010.8 |
| 20260902143427 | 66 | 98 | 0.0 | 5.0 | 0.00 | 0.02 | 0.00 | 100 | 1011.1 |
| 20260902143103 | 66 | 98 | 0.0 | 5.0 | 0.00 | 0.02 | 0.00 | 100 | 1011.1 |
| 20260902142429 | 64 | 136 | 2.0 | 4.0 | 0.00 | 0.02 | 0.00 | 100 | 1011.0 |
| 20260902142404 | 64 | 136 | 2.0 | 4.0 | 0.00 | 0.02 | 0.00 | 100 | 1011.0 |
| 20260902141704 | 64 | 149 | 1.0 | 5.0 | 0.00 | 0.02 | 0.00 | 100 | 1011.1 |
| 20260902141428 | 64 | 159 | 2.0 | 5.0 | 0.00 | 0.02 | 0.00 | 100 | 1011.6 |
| 20260902141000 | 64 | 170 | 1.0 | 5.0 | 0.00 | 0.02 | 0.00 | 100 | 1012.2 |
| 20260902140427 | 64 | 132 | 2.0 | 3.0 | 0.00 | 0.02 | 0.00 | 100 | 1012.1 |
| 20260902140301 | 64 | 132 | 2.0 | 3.0 | 0.00 | 0.02 | 0.00 | 100 | 1012.1 |
| 20260902135606 | 65 | 41 | 1.0 | 3.0 | 0.00 | 0.02 | 0.00 | 100 | 1011.4 |
| 20260902135427 | 65 | 39 | 1.0 | 2.0 | 0.00 | 0.02 | 0.00 | 100 | 1011.0 |
| 20260902134902 | 65 | 39 | 0.0 | 3.0 | 0.00 | 0.02 | 0.00 | 100 | 1011.2 |
| 20260902134427 | 65 | 39 | 1.0 | 3.0 | 0.00 | 0.02 | 0.00 | 100 | 1011.3 |
| 20260902134158 | 65 | 39 | 1.0 | 3.0 | 0.00 | 0.02 | 0.00 | 100 | 1011.3 |
| 20260902133459 | 65 | 39 | 1.0 | 2.0 | 0.00 | 0.02 | 0.00 | 100 | 1011.5 |
| 20260902133427 | 65 | 39 | 1.0 | 2.0 | 0.00 | 0.02 | 0.00 | 100 | 1011.5 |
| 20260902132802 | 65 | 39 | 0.0 | 2.0 | 0.00 | 0.02 | 0.00 | 100 | 1011.4 |
| 20260902132429 | 65 | 39 | 1.0 | 4.0 | 0.00 | 0.02 | 0.00 | 100 | 1011.4 |
| 20260902132102 | 65 | 39 | 1.0 | 4.0 | 0.00 | 0.02 | 0.00 | 100 | 1011.4 |
| 20260902131428 | 64 | 46 | 1.0 | 3.0 | 0.00 | 0.02 | 0.00 | 100 | 1011.4 |
| 20260902131402 | 64 | 46 | 1.0 | 3.0 | 0.00 | 0.02 | 0.00 | 100 | 1011.4 |
| 20260902130708 | 63 | 49 | 1.0 | 3.0 | 0.00 | 0.02 | 0.00 | 100 | 1011.5 |
| 20260902130428 | 63 | 354 | 1.0 | 4.0 | 0.00 | 0.02 | 0.00 | 100 | 1011.6 |
| 20260902130000 | 63 | 351 | 1.0 | 4.0 | 0.00 | 0.02 | 0.00 | 100 | 1011.8 |
| 20260902125428 | 63 | 48 | 1.0 | 3.0 | 0.00 | 0.02 | 0.00 | 100 | 1011.9 |
| 20260902125308 | 63 | 48 | 1.0 | 3.0 | 0.00 | 0.02 | 0.00 | 100 | 1011.9 |
| 20260902124606 | 62 | 83 | 1.0 | 3.0 | 0.00 | 0.02 | 0.00 | 100 | 1011.9 |
| 20260902124428 | 62 | 83 | 0.0 | 3.0 | 0.00 | 0.02 | 0.00 | 100 | 1012.0 |
| 20260902123859 | 62 | 91 | 0.0 | 3.0 | 0.00 | 0.02 | 0.00 | 100 | 1012.0 |
| 20260902123428 | 62 | 92 | 0.0 | 0.0 | 0.00 | 0.02 | 0.00 | 100 | 1011.9 |
| 20260902123200 | 62 | 92 | 0.0 | 0.0 | 0.00 | 0.02 | 0.00 | 100 | 1011.9 |
| 20260902122500 | 61 | 92 | 0.0 | 0.0 | 0.00 | 0.02 | 0.00 | 100 | 1011.4 |
| 20260902122428 | 61 | 92 | 0.0 | 0.0 | 0.00 | 0.02 | 0.00 | 100 | 1011.4 |
| 20260902121801 | 61 | 92 | 0.0 | 0.0 | 0.00 | 0.02 | 0.00 | 100 | 1010.9 |
| 20260902121427 | 61 | 92 | 0.0 | 0.0 | 0.00 | 0.02 | 0.00 | 100 | 1011.0 |
| 20260902121100 | 61 | 92 | 0.0 | 0.0 | 0.00 | 0.02 | 0.00 | 100 | 1011.0 |
| 20260902120427 | 61 | 92 | 0.0 | 1.0 | 0.00 | 0.02 | 0.00 | 100 | 1010.9 |
| 20260902120405 | 61 | 92 | 0.0 | 1.0 | 0.00 | 0.02 | 0.00 | 100 | 1010.9 |
| 20260902115658 | 61 | 92 | 0.0 | 1.0 | 0.00 | 0.02 | 0.00 | 100 | 1010.9 |
| 20260902115427 | 61 | 92 | 0.0 | 1.0 | 0.00 | 0.02 | 0.00 | 100 | 1010.9 |
| 20260902115000 | 61 | 92 | 0.0 | 1.0 | 0.00 | 0.02 | 0.00 | 100 | 1010.9 |
| 20260902114427 | 61 | 92 | 0.0 | 0.0 | 0.00 | 0.02 | 0.00 | 100 | 1010.7 |
| 20260902114259 | 61 | 92 | 0.0 | 0.0 | 0.00 | 0.02 | 0.00 | 100 | 1010.7 |
| 20260902113604 | 62 | 92 | 0.0 | 0.0 | 0.00 | 0.02 | 0.00 | 100 | 1010.5 |
| 20260902113429 | 62 | 92 | 0.0 | 0.0 | 0.00 | 0.02 | 0.00 | 100 | 1010.6 |
| 20260902112900 | 62 | 92 | 0.0 | 1.0 | 0.00 | 0.02 | 0.00 | 100 | 1010.5 |
| 20260902112429 | 62 | 92 | 0.0 | 1.0 | 0.00 | 0.02 | 0.00 | 100 | 1010.4 |
| 20260902112204 | 62 | 92 | 0.0 | 1.0 | 0.00 | 0.02 | 0.00 | 100 | 1010.4 |
| 20260902111500 | 62 | 92 | 0.0 | 0.0 | 0.00 | 0.02 | 0.00 | 100 | 1010.3 |
| 20260902111428 | 62 | 92 | 0.0 | 0.0 | 0.00 | 0.02 | 0.00 | 100 | 1010.3 |
| 20260902110807 | 62 | 92 | 0.0 | 1.0 | 0.00 | 0.02 | 0.00 | 100 | 1010.3 |
| 20260902110428 | 62 | 92 | 0.0 | 1.0 | 0.00 | 0.02 | 0.00 | 100 | 1010.3 |
| 20260902110101 | 62 | 92 | 0.0 | 1.0 | 0.00 | 0.02 | 0.00 | 100 | 1010.3 |
| 20260902105428 | 62 | 92 | 0.0 | 2.0 | 0.00 | 0.02 | 0.00 | 100 | 1010.6 |
| 20260902105400 | 62 | 92 | 0.0 | 2.0 | 0.00 | 0.02 | 0.00 | 100 | 1010.6 |
| 20260902104702 | 62 | 92 | 1.0 | 1.0 | 0.00 | 0.02 | 0.00 | 100 | 1010.4 |
| 20260902104427 | 62 | 92 | 0.0 | 1.0 | 0.00 | 0.02 | 0.00 | 100 | 1010.4 |
| 20260902104000 | 62 | 92 | 0.0 | 2.0 | 0.00 | 0.02 | 0.00 | 100 | 1010.4 |
| 20260902103427 | 63 | 92 | 1.0 | 2.0 | 0.00 | 0.02 | 0.00 | 100 | 1010.3 |
| 20260902103305 | 63 | 92 | 1.0 | 2.0 | 0.00 | 0.02 | 0.00 | 100 | 1010.3 |
| 20260902102601 | 63 | 92 | 0.0 | 1.0 | 0.00 | 0.02 | 0.00 | 100 | 1010.4 |
| 20260902102429 | 63 | 92 | 0.0 | 3.0 | 0.00 | 0.02 | 0.00 | 100 | 1010.5 |
| 20260902101902 | 63 | 92 | 0.0 | 3.0 | 0.00 | 0.02 | 0.00 | 100 | 1010.3 |
| 20260902101429 | 63 | 92 | 2.0 | 3.0 | 0.00 | 0.02 | 0.00 | 100 | 1010.5 |
| 20260902101200 | 63 | 92 | 2.0 | 3.0 | 0.00 | 0.02 | 0.00 | 100 | 1010.5 |
| 20260902100428 | 63 | 92 | 0.0 | 1.0 | 0.00 | 0.02 | 0.00 | 100 | 1010.7 |
| 20260902095801 | 63 | 92 | 0.0 | 2.0 | 0.00 | 0.02 | 0.00 | 100 | 1010.8 |
| 20260902095428 | 63 | 92 | 0.0 | 3.0 | 0.00 | 0.02 | 0.00 | 100 | 1010.7 |
| 20260902095102 | 63 | 92 | 0.0 | 3.0 | 0.00 | 0.02 | 0.00 | 100 | 1010.7 |
| 20260902094427 | 62 | 92 | 2.0 | 3.0 | 0.00 | 0.02 | 0.00 | 100 | 1010.9 |
| 20260902094359 | 62 | 92 | 2.0 | 3.0 | 0.00 | 0.02 | 0.00 | 100 | 1010.9 |
| 20260902093659 | 62 | 92 | 0.0 | 2.0 | 0.00 | 0.02 | 0.00 | 100 | 1010.9 |
| 20260902093427 | 62 | 92 | 0.0 | 1.0 | 0.00 | 0.02 | 0.00 | 100 | 1011.1 |
| 20260902092959 | 63 | 92 | 0.0 | 1.0 | 0.00 | 0.02 | 0.00 | 100 | 1011.2 |
| 20260902092427 | 63 | 92 | 0.0 | 1.0 | 0.00 | 0.02 | 0.00 | 100 | 1011.1 |
| 20260902092300 | 63 | 92 | 0.0 | 1.0 | 0.00 | 0.02 | 0.00 | 100 | 1011.1 |
| 20260902091559 | 63 | 92 | 0.0 | 0.0 | 0.00 | 0.02 | 0.00 | 100 | 1011.2 |
| 20260902091427 | 63 | 92 | 0.0 | 1.0 | 0.00 | 0.02 | 0.00 | 100 | 1011.2 |
| 20260902090905 | 63 | 92 | 0.0 | 1.0 | 0.00 | 0.02 | 0.00 | 100 | 1011.3 |
| 20260902090429 | 63 | 92 | 0.0 | 0.0 | 0.00 | 0.02 | 0.00 | 100 | 1011.4 |
| 20260902090200 | 63 | 92 | 0.0 | 0.0 | 0.00 | 0.02 | 0.00 | 100 | 1011.4 |
| 20260902085508 | 63 | 92 | 0.0 | 1.0 | 0.00 | 0.02 | 0.00 | 100 | 1011.5 |
| 20260902085429 | 63 | 92 | 0.0 | 1.0 | 0.00 | 0.02 | 0.00 | 100 | 1011.5 |
| 20260902084800 | 63 | 92 | 0.0 | 0.0 | 0.00 | 0.02 | 0.00 | 100 | 1011.5 |
| 20260902084428 | 63 | 92 | 0.0 | 2.0 | 0.00 | 0.02 | 0.00 | 100 | 1011.3 |
| 20260902084100 | 63 | 92 | 0.0 | 2.0 | 0.00 | 0.02 | 0.00 | 100 | 1011.3 |
| 20260902083427 | 63 | 92 | 1.0 | 2.0 | 0.00 | 0.02 | 0.00 | 100 | 1011.2 |
| 20260902083359 | 63 | 92 | 1.0 | 2.0 | 0.00 | 0.02 | 0.00 | 100 | 1011.2 |
| 20260902082659 | 63 | 92 | 0.0 | 0.0 | 0.00 | 0.02 | 0.00 | 100 | 1011.4 |
| 20260902082427 | 63 | 92 | 0.0 | 0.0 | 0.00 | 0.02 | 0.00 | 100 | 1011.5 |
| 20260902082002 | 63 | 92 | 0.0 | 0.0 | 0.00 | 0.02 | 0.00 | 100 | 1011.3 |
| 20260902081427 | 63 | 92 | 0.0 | 1.0 | 0.00 | 0.02 | 0.00 | 100 | 1011.5 |
| 20260902081258 | 63 | 92 | 0.0 | 1.0 | 0.00 | 0.02 | 0.00 | 100 | 1011.5 |
| 20260902080558 | 63 | 92 | 0.0 | 2.0 | 0.00 | 0.02 | 0.00 | 100 | 1011.2 |
| 20260902080427 | 63 | 92 | 0.0 | 2.0 | 0.00 | 0.02 | 0.00 | 100 | 1011.3 |
| 20260902075859 | 63 | 92 | 0.0 | 1.0 | 0.00 | 0.02 | 0.00 | 100 | 1011.4 |
| 20260902075427 | 63 | 92 | 0.0 | 1.0 | 0.00 | 0.02 | 0.00 | 100 | 1011.4 |
| 20260902075206 | 63 | 92 | 0.0 | 1.0 | 0.00 | 0.02 | 0.00 | 100 | 1011.4 |
| 20260902074504 | 63 | 92 | 0.0 | 1.0 | 0.00 | 0.02 | 0.00 | 100 | 1011.4 |
| 20260902074429 | 63 | 92 | 0.0 | 1.0 | 0.00 | 0.02 | 0.00 | 100 | 1011.4 |
| 20260902073800 | 63 | 92 | 0.0 | 1.0 | 0.00 | 0.02 | 0.00 | 100 | 1011.2 |
| 20260902073429 | 63 | 92 | 0.0 | 1.0 | 0.00 | 0.02 | 0.00 | 100 | 1011.3 |
| 20260902073100 | 63 | 92 | 0.0 | 1.0 | 0.00 | 0.02 | 0.00 | 100 | 1011.3 |
| 20260902072429 | 63 | 92 | 0.0 | 0.0 | 0.00 | 0.02 | 0.00 | 100 | 1010.8 |
| 20260902072401 | 63 | 92 | 0.0 | 0.0 | 0.00 | 0.02 | 0.00 | 100 | 1010.8 |
| 20260902071702 | 63 | 92 | 0.0 | 0.0 | 0.00 | 0.02 | 0.00 | 100 | 1010.8 |
| 20260902071428 | 63 | 92 | 0.0 | 0.0 | 0.00 | 0.02 | 0.00 | 100 | 1010.9 |
| 20260902071000 | 64 | 92 | 0.0 | 0.0 | 0.00 | 0.02 | 0.00 | 100 | 1010.9 |
| 20260902070428 | 64 | 92 | 0.0 | 0.0 | 0.00 | 0.02 | 0.00 | 100 | 1010.7 |
| 20260902070305 | 64 | 92 | 0.0 | 0.0 | 0.00 | 0.02 | 0.00 | 100 | 1010.7 |
| 20260902065559 | 64 | 92 | 0.0 | 2.0 | 0.00 | 0.02 | 0.00 | 100 | 1010.5 |
| 20260902065428 | 64 | 92 | 0.0 | 2.0 | 0.00 | 0.02 | 0.00 | 100 | 1010.5 |
| 20260902064906 | 64 | 92 | 0.0 | 1.0 | 0.00 | 0.02 | 0.00 | 100 | 1010.4 |
| 20260902064428 | 64 | 92 | 0.0 | 0.0 | 0.00 | 0.02 | 0.00 | 100 | 1010.6 |
| 20260902064200 | 64 | 92 | 0.0 | 0.0 | 0.00 | 0.02 | 0.00 | 100 | 1010.6 |
| 20260902063503 | 64 | 92 | 0.0 | 0.0 | 0.00 | 0.02 | 0.00 | 100 | 1010.4 |
| 20260902063428 | 64 | 92 | 0.0 | 0.0 | 0.00 | 0.02 | 0.00 | 100 | 1010.4 |
| 20260902062800 | 65 | 92 | 0.0 | 0.0 | 0.00 | 0.02 | 0.00 | 100 | 1010.3 |
| 20260902062428 | 65 | 92 | 0.0 | 0.0 | 0.00 | 0.02 | 0.00 | 100 | 1010.5 |
| 20260902062100 | 65 | 92 | 0.0 | 0.0 | 0.00 | 0.02 | 0.00 | 100 | 1010.5 |
| 20260902061428 | 65 | 92 | 0.0 | 1.0 | 0.00 | 0.02 | 0.00 | 100 | 1010.5 |
| 20260902061400 | 65 | 92 | 0.0 | 1.0 | 0.00 | 0.02 | 0.00 | 100 | 1010.5 |
| 20260902060701 | 65 | 92 | 0.0 | 1.0 | 0.00 | 0.02 | 0.00 | 100 | 1010.6 |
| 20260902060428 | 65 | 92 | 0.0 | 1.0 | 0.00 | 0.02 | 0.00 | 100 | 1010.7 |
| 20260902060001 | 65 | 92 | 0.0 | 0.0 | 0.00 | 0.02 | 0.00 | 100 | 1010.8 |
| 20260902055428 | 65 | 92 | 0.0 | 1.0 | 0.00 | 0.02 | 0.00 | 100 | 1010.7 |
| 20260902054603 | 65 | 92 | 0.0 | 1.0 | 0.00 | 0.02 | 0.00 | 100 | 1010.7 |
| 20260902054428 | 66 | 92 | 0.0 | 1.0 | 0.00 | 0.02 | 0.00 | 100 | 1010.9 |
| 20260902053903 | 66 | 92 | 0.0 | 3.0 | 0.00 | 0.02 | 0.00 | 99 | 1011.1 |
| 20260902053428 | 66 | 92 | 1.0 | 3.0 | 0.00 | 0.02 | 0.00 | 99 | 1010.9 |
| 20260902053159 | 66 | 92 | 1.0 | 3.0 | 0.00 | 0.02 | 0.00 | 99 | 1010.9 |
| 20260902052502 | 66 | 92 | 0.0 | 1.0 | 0.00 | 0.02 | 0.00 | 99 | 1010.9 |
| 20260902052428 | 66 | 92 | 0.0 | 1.0 | 0.00 | 0.02 | 0.00 | 99 | 1010.9 |
| 20260902051801 | 67 | 92 | 0.0 | 1.0 | 0.00 | 0.02 | 0.00 | 98 | 1010.9 |
| 20260902051428 | 67 | 92 | 0.0 | 2.0 | 0.00 | 0.02 | 0.00 | 98 | 1010.9 |
| 20260902051101 | 67 | 92 | 0.0 | 2.0 | 0.00 | 0.02 | 0.00 | 98 | 1010.9 |
| 20260902050427 | 67 | 92 | 1.0 | 5.0 | 0.00 | 0.02 | 0.02 | 99 | 1010.8 |
| 20260902050359 | 67 | 92 | 1.0 | 5.0 | 0.00 | 0.02 | 0.02 | 99 | 1010.8 |
| 20260902045659 | 66 | 92 | 1.0 | 5.0 | 0.00 | 0.02 | 0.02 | 99 | 1010.7 |
| 20260902045427 | 66 | 90 | 3.0 | 5.0 | 0.00 | 0.02 | 0.02 | 100 | 1010.8 |
| 20260902044958 | 66 | 84 | 2.0 | 4.0 | 0.00 | 0.02 | 0.02 | 100 | 1010.8 |
| 20260902044427 | 66 | 84 | 1.0 | 3.0 | 0.00 | 0.02 | 0.02 | 100 | 1010.7 |
| 20260902044307 | 66 | 84 | 1.0 | 3.0 | 0.00 | 0.02 | 0.02 | 100 | 1010.7 |
| 20260902043558 | 66 | 84 | 2.0 | 3.0 | 0.00 | 0.02 | 0.02 | 100 | 1010.9 |
| 20260902043427 | 66 | 83 | 0.0 | 3.0 | 0.00 | 0.02 | 0.02 | 100 | 1011.0 |
| 20260902042858 | 66 | 83 | 1.0 | 3.0 | 0.00 | 0.02 | 0.02 | 100 | 1011.1 |
| 20260902042427 | 66 | 80 | 0.0 | 3.0 | 0.00 | 0.02 | 0.02 | 100 | 1011.3 |
| 20260902042203 | 66 | 80 | 0.0 | 3.0 | 0.00 | 0.02 | 0.02 | 100 | 1011.3 |
| 20260902041505 | 66 | 54 | 1.0 | 4.0 | 0.00 | 0.02 | 0.02 | 100 | 1011.5 |
| 20260902041429 | 66 | 54 | 1.0 | 4.0 | 0.00 | 0.02 | 0.02 | 100 | 1011.5 |
| 20260902040802 | 66 | 18 | 2.0 | 4.0 | 0.00 | 0.02 | 0.02 | 100 | 1011.5 |
| 20260902040427 | 66 | 360 | 0.0 | 0.0 | 0.00 | 0.02 | 0.02 | 100 | 1011.4 |
| 20260902035427 | 66 | 360 | 0.0 | 2.0 | 0.00 | 0.02 | 0.02 | 100 | 1011.4 |
| 20260902035400 | 66 | 360 | 0.0 | 2.0 | 0.00 | 0.02 | 0.02 | 100 | 1011.4 |
| 20260902034700 | 66 | 360 | 1.0 | 4.0 | 0.00 | 0.02 | 0.02 | 100 | 1011.5 |
| 20260902034427 | 66 | 360 | 1.0 | 4.0 | 0.00 | 0.02 | 0.02 | 100 | 1011.6 |
| 20260902034000 | 66 | 6 | 2.0 | 3.0 | 0.00 | 0.02 | 0.02 | 100 | 1011.5 |
| 20260902033427 | 66 | 8 | 0.0 | 2.0 | 0.00 | 0.02 | 0.02 | 100 | 1011.4 |
| 20260902033301 | 66 | 8 | 0.0 | 2.0 | 0.00 | 0.02 | 0.02 | 100 | 1011.4 |
| 20260902032603 | 66 | 8 | 1.0 | 2.0 | 0.00 | 0.02 | 0.02 | 100 | 1011.5 |
| 20260902032428 | 66 | 7 | 0.0 | 2.0 | 0.00 | 0.02 | 0.02 | 100 | 1011.5 |
| 20260902031905 | 66 | 8 | 0.0 | 3.0 | 0.00 | 0.02 | 0.02 | 100 | 1011.5 |
| 20260902031428 | 66 | 9 | 2.0 | 3.0 | 0.00 | 0.02 | 0.02 | 100 | 1011.4 |
| 20260902031200 | 66 | 9 | 2.0 | 3.0 | 0.00 | 0.02 | 0.02 | 100 | 1011.4 |
| 20260902030459 | 66 | 344 | 2.0 | 4.0 | 0.01 | 0.02 | 0.02 | 100 | 1011.8 |
| 20260902030428 | 66 | 344 | 2.0 | 4.0 | 0.01 | 0.02 | 0.02 | 100 | 1011.8 |
| 20260902025801 | 66 | 360 | 0.0 | 3.0 | 0.01 | 0.02 | 0.02 | 100 | 1011.9 |
| 20260902025427 | 67 | 360 | 1.0 | 3.0 | 0.01 | 0.02 | 0.02 | 100 | 1011.8 |
| 20260902025101 | 67 | 360 | 1.0 | 3.0 | 0.01 | 0.02 | 0.02 | 100 | 1011.8 |
| 20260902024427 | 67 | 51 | 2.0 | 8.0 | 0.01 | 0.02 | 0.02 | 99 | 1011.2 |
| 20260902024359 | 67 | 51 | 2.0 | 8.0 | 0.01 | 0.02 | 0.02 | 99 | 1011.2 |
| 20260902023659 | 67 | 95 | 4.0 | 8.0 | 0.01 | 0.02 | 0.02 | 99 | 1011.0 |
| 20260902023427 | 67 | 103 | 4.0 | 7.0 | 0.01 | 0.02 | 0.02 | 100 | 1011.2 |
| 20260902022958 | 67 | 94 | 3.0 | 8.0 | 0.01 | 0.02 | 0.02 | 100 | 1011.3 |
| 20260902022427 | 67 | 94 | 5.0 | 8.0 | 0.01 | 0.02 | 0.02 | 100 | 1011.5 |
| 20260902022301 | 67 | 94 | 5.0 | 8.0 | 0.01 | 0.02 | 0.02 | 100 | 1011.5 |
| 20260902021600 | 67 | 82 | 3.0 | 6.0 | 0.01 | 0.02 | 0.02 | 100 | 1011.8 |
| 20260902021429 | 67 | 66 | 1.0 | 2.0 | 0.00 | 0.01 | 0.01 | 100 | 1012.1 |
| 20260902020900 | 67 | 66 | 0.0 | 1.0 | 0.00 | 0.01 | 0.01 | 100 | 1012.1 |
| 20260902020428 | 67 | 66 | 0.0 | 2.0 | 0.01 | 0.01 | 0.01 | 100 | 1011.6 |
| 20260902020200 | 67 | 66 | 0.0 | 2.0 | 0.01 | 0.01 | 0.01 | 100 | 1011.6 |
| 20260902015501 | 67 | 66 | 1.0 | 2.0 | 0.01 | 0.01 | 0.01 | 100 | 1011.6 |
| 20260902015428 | 67 | 66 | 1.0 | 2.0 | 0.01 | 0.01 | 0.01 | 100 | 1011.6 |
| 20260902014800 | 67 | 66 | 0.0 | 1.0 | 0.00 | 0.00 | 0.00 | 100 | 1011.8 |
| 20260902014428 | 67 | 66 | 0.0 | 1.0 | 0.00 | 0.00 | 0.00 | 100 | 1011.9 |
| 20260902014106 | 67 | 66 | 0.0 | 1.0 | 0.00 | 0.00 | 0.00 | 100 | 1011.9 |
| 20260902013428 | 68 | 66 | 1.0 | 4.0 | 0.00 | 0.00 | 0.00 | 100 | 1010.9 |
| 20260902013400 | 68 | 66 | 1.0 | 4.0 | 0.00 | 0.00 | 0.00 | 100 | 1010.9 |
| 20260902012700 | 68 | 67 | 2.0 | 4.0 | 0.00 | 0.00 | 0.00 | 100 | 1010.7 |
| 20260902012428 | 68 | 67 | 1.0 | 2.0 | 0.00 | 0.00 | 0.00 | 99 | 1010.9 |
| 20260902012001 | 68 | 67 | 0.0 | 2.0 | 0.00 | 0.00 | 0.00 | 99 | 1011.3 |
| 20260902011428 | 68 | 67 | 0.0 | 2.0 | 0.00 | 0.00 | 0.00 | 98 | 1011.7 |
| 20260902011301 | 68 | 67 | 0.0 | 2.0 | 0.00 | 0.00 | 0.00 | 98 | 1011.7 |
| 20260902010601 | 69 | 67 | 0.0 | 1.0 | 0.00 | 0.00 | 0.00 | 98 | 1011.5 |
| 20260902010428 | 69 | 67 | 0.0 | 0.0 | 0.00 | 0.00 | 0.00 | 97 | 1011.6 |
| 20260902005900 | 69 | 67 | 0.0 | 2.0 | 0.00 | 0.00 | 0.00 | 97 | 1011.4 |
| 20260902005427 | 69 | 67 | 0.0 | 4.0 | 0.00 | 0.00 | 0.00 | 97 | 1011.1 |
| 20260902005200 | 69 | 67 | 0.0 | 4.0 | 0.00 | 0.00 | 0.00 | 97 | 1011.1 |
| 20260902004504 | 69 | 91 | 4.0 | 8.0 | 0.00 | 0.00 | 0.00 | 96 | 1011.3 |
| 20260902004428 | 69 | 91 | 4.0 | 8.0 | 0.00 | 0.00 | 0.00 | 96 | 1011.3 |
| 20260902003758 | 69 | 97 | 5.0 | 7.0 | 0.00 | 0.00 | 0.00 | 96 | 1011.4 |
| 20260902003427 | 69 | 97 | 2.0 | 3.0 | 0.00 | 0.00 | 0.00 | 96 | 1012.1 |
| 20260902003105 | 69 | 97 | 2.0 | 3.0 | 0.00 | 0.00 | 0.00 | 96 | 1012.1 |
| 20260902002427 | 69 | 109 | 0.0 | 2.0 | 0.00 | 0.00 | 0.00 | 96 | 1013.1 |
| 20260902002403 | 69 | 109 | 0.0 | 2.0 | 0.00 | 0.00 | 0.00 | 96 | 1013.1 |
| 20260902001700 | 70 | 108 | 1.0 | 4.0 | 0.00 | 0.00 | 0.00 | 94 | 1013.0 |
| 20260902001429 | 70 | 78 | 2.0 | 4.0 | 0.00 | 0.00 | 0.00 | 94 | 1012.3 |
| 20260902001000 | 70 | 51 | 0.0 | 3.0 | 0.00 | 0.00 | 0.00 | 94 | 1012.1 |
| 20260902000429 | 70 | 51 | 1.0 | 3.0 | 0.00 | 0.00 | 0.00 | 94 | 1011.7 |
| 20260902000259 | 70 | 51 | 1.0 | 3.0 | 0.00 | 0.00 | 0.00 | 94 | 1011.7 |
| 20260901235428 | 71 | 51 | 1.0 | 3.0 | 0.00 | 0.00 | 0.00 | 93 | 1011.9 |
| 20260901234859 | 71 | 51 | 2.0 | 4.0 | 0.00 | 0.00 | 0.00 | 92 | 1012.0 |
| 20260901234427 | 71 | 50 | 2.0 | 6.0 | 0.00 | 0.00 | 0.00 | 91 | 1012.0 |
| 20260901234200 | 71 | 50 | 2.0 | 6.0 | 0.00 | 0.00 | 0.00 | 91 | 1012.0 |
| 20260901233501 | 71 | 67 | 3.0 | 5.0 | 0.00 | 0.00 | 0.00 | 91 | 1012.2 |
| 20260901233427 | 71 | 67 | 3.0 | 5.0 | 0.00 | 0.00 | 0.00 | 91 | 1012.2 |
| 20260901232758 | 72 | 40 | 1.0 | 5.0 | 0.00 | 0.00 | 0.00 | 90 | 1012.4 |
| 20260901232427 | 72 | 37 | 1.0 | 3.0 | 0.00 | 0.00 | 0.00 | 89 | 1012.3 |
| 20260901232058 | 72 | 37 | 1.0 | 3.0 | 0.00 | 0.00 | 0.00 | 89 | 1012.3 |
| 20260901231427 | 72 | 37 | 1.0 | 2.0 | 0.00 | 0.00 | 0.00 | 88 | 1012.8 |
| 20260901231358 | 72 | 37 | 1.0 | 2.0 | 0.00 | 0.00 | 0.00 | 88 | 1012.8 |
| 20260901230702 | 72 | 37 | 0.0 | 2.0 | 0.00 | 0.00 | 0.00 | 88 | 1012.9 |
| 20260901230428 | 72 | 38 | 0.0 | 2.0 | 0.00 | 0.00 | 0.00 | 86 | 1013.2 |
| 20260901225959 | 73 | 38 | 0.0 | 2.0 | 0.00 | 0.00 | 0.00 | 84 | 1013.2 |
| 20260901225428 | 73 | 38 | 0.0 | 2.0 | 0.00 | 0.00 | 0.00 | 84 | 1013.1 |
| 20260901225306 | 73 | 38 | 0.0 | 2.0 | 0.00 | 0.00 | 0.00 | 84 | 1013.1 |
| 20260901224601 | 73 | 37 | 0.0 | 3.0 | 0.00 | 0.00 | 0.00 | 83 | 1012.9 |
| 20260901224427 | 74 | 38 | 0.0 | 3.0 | 0.00 | 0.00 | 0.00 | 83 | 1012.8 |
| 20260901223901 | 74 | 37 | 2.0 | 4.0 | 0.00 | 0.00 | 0.00 | 83 | 1012.6 |
| 20260901223427 | 74 | 37 | 2.0 | 4.0 | 0.00 | 0.00 | 0.00 | 83 | 1012.6 |
| 20260901223201 | 74 | 37 | 2.0 | 4.0 | 0.00 | 0.00 | 0.00 | 83 | 1012.6 |
| 20260901222502 | 74 | 16 | 1.0 | 3.0 | 0.00 | 0.00 | 0.00 | 86 | 1012.5 |
| 20260901222427 | 74 | 16 | 1.0 | 3.0 | 0.00 | 0.00 | 0.00 | 86 | 1012.5 |
| 20260901221758 | 74 | 16 | 1.0 | 4.0 | 0.00 | 0.00 | 0.00 | 86 | 1012.6 |
| 20260901221427 | 74 | 25 | 2.0 | 4.0 | 0.00 | 0.00 | 0.00 | 86 | 1012.4 |
| 20260901221059 | 74 | 25 | 2.0 | 4.0 | 0.00 | 0.00 | 0.00 | 86 | 1012.4 |
| 20260901220429 | 74 | 343 | 1.0 | 6.0 | 0.00 | 0.00 | 0.00 | 87 | 1012.7 |
| 20260901220400 | 74 | 343 | 1.0 | 6.0 | 0.00 | 0.00 | 0.00 | 87 | 1012.7 |
| 20260901215705 | 74 | 356 | 2.0 | 6.0 | 0.00 | 0.00 | 0.00 | 86 | 1012.8 |
| 20260901215429 | 75 | 360 | 1.0 | 4.0 | 0.00 | 0.00 | 0.00 | 85 | 1012.9 |
| 20260901215001 | 75 | 356 | 1.0 | 4.0 | 0.00 | 0.00 | 0.00 | 85 | 1012.9 |
| 20260901214428 | 75 | 2 | 2.0 | 5.0 | 0.00 | 0.00 | 0.00 | 82 | 1012.9 |
| 20260901214301 | 75 | 2 | 2.0 | 5.0 | 0.00 | 0.00 | 0.00 | 82 | 1012.9 |
| 20260901213559 | 75 | 88 | 3.0 | 5.0 | 0.00 | 0.00 | 0.00 | 83 | 1012.7 |
| 20260901213428 | 75 | 88 | 1.0 | 4.0 | 0.00 | 0.00 | 0.00 | 83 | 1012.7 |
| 20260901212859 | 75 | 87 | 2.0 | 4.0 | 0.00 | 0.00 | 0.00 | 83 | 1012.8 |
| 20260901212428 | 75 | 87 | 1.0 | 4.0 | 0.00 | 0.00 | 0.00 | 82 | 1012.9 |
| 20260901212200 | 75 | 87 | 1.0 | 4.0 | 0.00 | 0.00 | 0.00 | 82 | 1012.9 |
| 20260901211501 | 75 | 71 | 0.0 | 5.0 | 0.00 | 0.00 | 0.00 | 84 | 1012.9 |
| 20260901211428 | 75 | 71 | 0.0 | 5.0 | 0.00 | 0.00 | 0.00 | 84 | 1012.9 |
| 20260901210800 | 75 | 70 | 2.0 | 5.0 | 0.00 | 0.00 | 0.00 | 84 | 1012.5 |
| 20260901210428 | 75 | 64 | 3.0 | 5.0 | 0.00 | 0.00 | 0.00 | 83 | 1012.1 |
| 20260901210059 | 75 | 64 | 3.0 | 5.0 | 0.00 | 0.00 | 0.00 | 83 | 1012.1 |
| 20260901205428 | 75 | 336 | 1.0 | 2.0 | 0.00 | 0.00 | 0.00 | 79 | 1013.0 |
| 20260901205401 | 75 | 336 | 1.0 | 2.0 | 0.00 | 0.00 | 0.00 | 79 | 1013.0 |
| 20260901204700 | 76 | 337 | 0.0 | 0.0 | 0.00 | 0.00 | 0.00 | 80 | 1013.4 |
| 20260901204428 | 76 | 337 | 0.0 | 1.0 | 0.00 | 0.00 | 0.00 | 79 | 1013.5 |
| 20260901204000 | 76 | 337 | 0.0 | 2.0 | 0.00 | 0.00 | 0.00 | 77 | 1013.4 |
| 20260901203427 | 76 | 336 | 0.0 | 2.0 | 0.00 | 0.00 | 0.00 | 77 | 1013.1 |
| 20260901203300 | 76 | 336 | 0.0 | 2.0 | 0.00 | 0.00 | 0.00 | 77 | 1013.1 |
| 20260901202600 | 77 | 335 | 0.0 | 4.0 | 0.00 | 0.00 | 0.00 | 77 | 1013.1 |
| 20260901202427 | 77 | 313 | 1.0 | 4.0 | 0.00 | 0.00 | 0.00 | 76 | 1013.0 |
| 20260901201859 | 77 | 356 | 1.0 | 5.0 | 0.00 | 0.00 | 0.00 | 76 | 1012.9 |
| 20260901201427 | 77 | 52 | 2.0 | 5.0 | 0.00 | 0.00 | 0.00 | 75 | 1012.9 |
| 20260901201158 | 77 | 52 | 2.0 | 5.0 | 0.00 | 0.00 | 0.00 | 75 | 1012.9 |
| 20260901200502 | 77 | 24 | 1.0 | 5.0 | 0.00 | 0.00 | 0.00 | 74 | 1012.8 |
| 20260901200428 | 77 | 24 | 1.0 | 5.0 | 0.00 | 0.00 | 0.00 | 74 | 1012.8 |
| 20260901195759 | 77 | 56 | 2.0 | 5.0 | 0.00 | 0.00 | 0.00 | 75 | 1012.8 |
| 20260901195428 | 77 | 67 | 1.0 | 5.0 | 0.00 | 0.00 | 0.00 | 76 | 1012.8 |
| 20260901195100 | 77 | 67 | 1.0 | 5.0 | 0.00 | 0.00 | 0.00 | 76 | 1012.8 |
| 20260901194428 | 77 | 48 | 1.0 | 3.0 | 0.00 | 0.00 | 0.00 | 77 | 1012.8 |
| 20260901194404 | 77 | 48 | 1.0 | 3.0 | 0.00 | 0.00 | 0.00 | 77 | 1012.8 |
| 20260901193659 | 76 | 59 | 2.0 | 5.0 | 0.00 | 0.00 | 0.00 | 78 | 1012.8 |
| 20260901193427 | 76 | 65 | 2.0 | 5.0 | 0.00 | 0.00 | 0.00 | 81 | 1012.9 |
| 20260901193002 | 76 | 333 | 1.0 | 4.0 | 0.00 | 0.00 | 0.00 | 81 | 1013.0 |
| 20260901192427 | 76 | 27 | 1.0 | 3.0 | 0.00 | 0.00 | 0.00 | 79 | 1013.1 |
| 20260901192259 | 76 | 27 | 1.0 | 3.0 | 0.00 | 0.00 | 0.00 | 79 | 1013.1 |
| 20260901191559 | 76 | 42 | 1.0 | 3.0 | 0.00 | 0.00 | 0.00 | 79 | 1013.0 |
| 20260901191427 | 75 | 95 | 0.0 | 2.0 | 0.00 | 0.00 | 0.00 | 78 | 1013.1 |
| 20260901190858 | 76 | 95 | 0.0 | 2.0 | 0.00 | 0.00 | 0.00 | 77 | 1013.2 |
| 20260901190428 | 76 | 95 | 0.0 | 3.0 | 0.00 | 0.00 | 0.00 | 76 | 1013.0 |
| 20260901190159 | 76 | 95 | 0.0 | 3.0 | 0.00 | 0.00 | 0.00 | 76 | 1013.0 |
| 20260901185458 | 76 | 96 | 2.0 | 8.0 | 0.00 | 0.00 | 0.00 | 75 | 1013.0 |
| 20260901185427 | 76 | 96 | 2.0 | 8.0 | 0.00 | 0.00 | 0.00 | 75 | 1013.0 |